Mackinac Island, MI

5:46 PM EDT on April 30, 2017 (GMT -0400)
Mackinac Island

Weather History for KMCD - May, 2014

Change the Weather History Date:

Monday, May 12, 2014

  Actual Average Record
Temperature  
Mean Temperature 48 °F -  
Max Temperature 55 °F 53 °F 75 °F (1985)
Min Temperature 40 °F 39 °F 28 °F (1981)
Degree Days  
Heating Degree Days 18    
Moisture  
Dew Point 37 °F    
Average Humidity 75    
Maximum Humidity 89    
Minimum Humidity 48    
Precipitation  
Precipitation 0.10 in - - ()
Sea Level Pressure  
Sea Level Pressure 30.00 in    
Wind  
Wind Speed 13 mph (East)    
Max Wind Speed 21 mph    
Max Gust Speed 32 mph    
Visibility 10 miles    
Events Rain    
Averages and records for this station are not official NWS values.
T = Trace of Precipitation, MM = Missing Value Source: NWS Daily Summary

Daily Weather History Graph

Daily Weather History Graph

Search for Another Location

Airport or City:

Trip Planner

Search our weather history database for the weather conditions in past years. The results will help you decide how hot, cold, wet, or windy it might be!

Date:

Astronomy

May. 12, 2014 Rise Set
Actual Time 6:10 AM EDT 9:00 PM EDT
Civil Twilight 5:35 AM EDT 9:34 PM EDT
Nautical Twilight 4:52 AM EDT 10:18 PM EDT
Astronomical Twilight 4:00 AM EDT 11:10 PM EDT
Moon 6:50 PM EDT (5/12) 4:57 AM EDT (5/12)
Length of Visible Light 15h 58m
Length of Day
14h 49m
Waxing Gibbous, 95% of the Moon is Illuminated
May 12
Waxing Gibbous
May 14
Full
May 21
Last Quarter
May 28
New
Jun 5
First Quarter

Hourly Weather History & Observations

Time (EDT) Temp. Windchill Dew Point Humidity Pressure Visibility Wind Dir Wind Speed Gust Speed Precip Events Conditions
12:17 AM 45.3 °F 41.1 °F 36.0 °F 70% 30.00 in 10.0 mi East 8.1 mph - N/A   Clear
12:38 AM 49.3 °F - 36.5 °F 61% 30.00 in 10.0 mi ESE 10.4 mph - N/A   Scattered Clouds
12:57 AM 55.4 °F - 35.8 °F 48% 30.00 in 10.0 mi ESE 9.2 mph - N/A   Mostly Cloudy
1:17 AM 47.8 °F - 36.1 °F 64% 30.00 in 10.0 mi ESE 8.1 mph - N/A   Overcast
1:38 AM 44.2 °F 39.2 °F 35.8 °F 72% 30.01 in 10.0 mi East 9.2 mph - N/A   Overcast
1:57 AM 44.8 °F 41.0 °F 36.0 °F 71% 30.00 in 10.0 mi East 6.9 mph - N/A   Overcast
2:18 AM 45.5 °F 39.9 °F 35.8 °F 69% 30.00 in 10.0 mi East 11.5 mph - N/A   Overcast
2:37 AM 45.9 °F 39.7 °F 35.6 °F 67% 30.00 in 10.0 mi ENE 13.8 mph - N/A   Scattered Clouds
2:57 AM 46.9 °F - 35.6 °F 65% 29.99 in 10.0 mi ENE 13.8 mph - N/A   Clear
3:18 AM 49.1 °F - 36.5 °F 62% 29.98 in 10.0 mi East 12.7 mph - N/A   Clear
3:37 AM 50.0 °F - 37.0 °F 61% 29.98 in 10.0 mi East 9.2 mph 16.1 mph N/A   Clear
3:57 AM 48.6 °F - 37.0 °F 64% 29.99 in 10.0 mi ENE 13.8 mph 17.3 mph N/A   Clear
4:18 AM 48.4 °F - 37.8 °F 67% 29.98 in 10.0 mi ENE 13.8 mph - N/A   Scattered Clouds
4:37 AM 49.1 °F - 38.5 °F 67% 30.00 in 10.0 mi ENE 12.7 mph 19.6 mph N/A   Scattered Clouds
4:58 AM 48.7 °F - 39.2 °F 70% 30.00 in 10.0 mi ENE 9.2 mph - N/A   Clear
5:17 AM 48.0 °F - 39.2 °F 72% 29.99 in 10.0 mi East 15.0 mph 23.0 mph N/A   Clear
5:37 AM 47.5 °F - 38.5 °F 71% 29.99 in 10.0 mi East 19.6 mph 26.5 mph N/A   Clear
5:58 AM 46.4 °F 39.0 °F 37.9 °F 72% 29.98 in 10.0 mi East 19.6 mph 26.5 mph N/A   Clear
6:17 AM 45.7 °F 39.1 °F 37.8 °F 74% 30.00 in 10.0 mi East 15.0 mph 26.5 mph N/A   Scattered Clouds
6:37 AM 45.7 °F 39.8 °F 37.9 °F 74% 30.00 in 10.0 mi East 12.7 mph 23.0 mph N/A   Overcast
6:58 AM 45.5 °F 38.9 °F 37.9 °F 75% 30.02 in 10.0 mi East 15.0 mph 23.0 mph N/A   Overcast
7:17 AM 45.5 °F 38.1 °F 37.4 °F 73% 30.03 in 10.0 mi ESE 18.4 mph 26.5 mph N/A   Overcast
7:38 AM 45.7 °F 37.8 °F 37.4 °F 73% 30.02 in 10.0 mi East 20.7 mph 28.8 mph N/A   Overcast
7:57 AM 44.6 °F 36.4 °F 36.9 °F 74% 30.03 in 10.0 mi East 20.7 mph 28.8 mph N/A   Overcast
8:17 AM 44.6 °F 36.9 °F 36.9 °F 74% 30.03 in 10.0 mi East 18.4 mph 28.8 mph N/A   Overcast
8:38 AM 43.9 °F 35.4 °F 36.7 °F 76% 30.03 in 10.0 mi East 20.7 mph 29.9 mph N/A   Overcast
8:57 AM 43.3 °F 34.7 °F 36.5 °F 77% 30.03 in 10.0 mi East 20.7 mph 32.2 mph N/A   Overcast
9:17 AM 43.0 °F 34.8 °F 36.5 °F 78% 30.04 in 10.0 mi East 18.4 mph 29.9 mph N/A   Light Drizzle
9:38 AM 42.4 °F 34.1 °F 36.7 °F 80% 30.05 in 10.0 mi ESE 18.4 mph 26.5 mph N/A Rain Light Rain
10:18 AM 42.3 °F 34.1 °F 38.1 °F 85% 30.05 in 10.0 mi East 17.3 mph 24.2 mph 0.01 in Rain Light Rain
10:38 AM 42.4 °F 35.0 °F 38.3 °F 85% 30.04 in 10.0 mi East 15.0 mph 23.0 mph 0.01 in Rain Light Rain
10:57 AM 42.1 °F 33.9 °F 38.3 °F 86% 30.02 in 10.0 mi East 17.3 mph 27.6 mph 0.01 in   Overcast
11:18 AM 41.5 °F 32.4 °F 37.8 °F 86% 30.00 in 10.0 mi East 20.7 mph 27.6 mph N/A   Scattered Clouds
11:38 AM 41.0 °F 32.5 °F 37.4 °F 87% 29.98 in 10.0 mi East 17.3 mph 28.8 mph N/A   Mostly Cloudy
11:57 AM 40.8 °F 32.3 °F 36.9 °F 86% 30.01 in 10.0 mi East 17.3 mph 24.2 mph N/A   Overcast
12:18 PM 42.1 °F 33.3 °F 36.7 °F 81% 30.01 in 10.0 mi East 19.6 mph 31.1 mph N/A   Light Drizzle
12:37 PM 42.3 °F 33.8 °F 37.2 °F 82% 30.00 in 10.0 mi East 18.4 mph 29.9 mph N/A Rain Light Rain
12:57 PM 42.4 °F - 36.9 °F 81% 30.01 in 10.0 mi North - - N/A   Overcast
1:18 PM 43.7 °F - 37.6 °F 79% 30.02 in 5.0 mi North - - 0.01 in   Unknown
1:38 PM 43.3 °F - 38.5 °F 83% 30.00 in 5.0 mi North - - 0.02 in   Overcast
1:57 PM 45.0 °F - 38.5 °F 78% 30.01 in 10.0 mi North - - 0.02 in   Overcast
2:18 PM 45.0 °F - 37.9 °F 76% 30.02 in 10.0 mi North - - N/A   Overcast
2:37 PM 45.5 °F - 37.9 °F 75% 30.01 in 10.0 mi North - - N/A   Overcast
2:58 PM 46.2 °F - 38.3 °F 74% 30.01 in 10.0 mi North - - N/A   Overcast
3:18 PM 45.5 °F - 37.4 °F 73% 30.00 in 10.0 mi North - - N/A   Overcast
3:37 PM 45.7 °F - 37.4 °F 73% 30.00 in 10.0 mi North - - N/A   Overcast
3:58 PM 45.5 °F - 37.2 °F 73% 30.00 in 10.0 mi North - - N/A   Overcast
4:17 PM 43.5 °F - 38.3 °F 82% 30.00 in 2.5 mi North - - 0.05 in   Unknown
4:38 PM 42.3 °F - 38.8 °F 88% 29.96 in 3.0 mi North - - 0.07 in   Overcast
4:57 PM 41.0 °F - 37.9 °F 89% 29.94 in 10.0 mi North - - 0.07 in   Overcast
5:18 PM 41.2 °F - 37.9 °F 88% 29.95 in 10.0 mi North - - N/A   Overcast
5:38 PM 41.2 °F - 37.8 °F 88% 29.96 in 10.0 mi North - - N/A   Overcast
5:57 PM 42.1 °F - 37.9 °F 85% 29.95 in 10.0 mi North - - N/A   Overcast
6:18 PM 41.5 °F - 37.6 °F 86% 29.93 in - North - - N/A   Unknown
6:32 PM - - - N/A% 29.93 in - North - - N/A   Unknown